Lid_Strength_Index
0 1 2 4 12 12 15 14 11 11 10 8 7 8 8 8 9 11 3 1 0 0 -0 -0 -1 -2 -2 -2 -2 -1 -1 -1 -1 -2 -2 -2 -2 -2 -2 -2 -2 -2 -2 -2 -2 -2 -2 -2 -2
2 1 4 8 14 16 15 13 12 9 8 6 7 8 9 9 6 5 4 1 0 0 -0 -0 -1 -1 -1 -1 -1 -1 -1 -1 -2 -2 -2 -2 -2 -2 -2 -2 -2 -2 -2 -2 -2 -1 -1 -1 -1
2 2 7 11 14 15 15 11 10 8 7 7 8 7 8 8 5 4 2 1 0 0 -0 -0 -1 -1 -1 -1 -1 -1 -2 -2 -2 -2 -2 -2 -2 -2 -2 -2 -2 -2 -2 -1 -1 -1 -1 -1 -1
4 5 7 13 15 13 13 10 9 8 7 6 7 9 6 4 5 2 1 0 1 0 0 -0 -1 -1 -1 -1 -1 -1 -1 -2 -2 -2 -2 -2 -2 -2 -2 -2 -1 -1 -1 -1 -1 -1 -1 -1 -1
4 7 13 14 13 11 10 9 8 9 8 8 7 10 9 4 2 1 1 0 1 1 0 -0 -1 -1 -1 -1 -1 -2 -2 -2 -2 -2 -2 -2 -2 -2 -1 -1 -1 -1 -1 -1 -1 -1 -1 -1 -1
8 8 14 16 13 10 10 8 8 8 7 7 8 8 8 4 3 2 1 1 0 1 -0 -0 -0 -1 -1 -1 -2 -2 -2 -2 -2 -2 -2 -2 -2 -1 -1 -1 -1 -1 -1 -1 -1 -1 -1 -1 -1
10 11 15 14 13 12 9 8 9 8 8 8 6 9 7 4 2 1 1 1 1 0 0 -0 -0 -0 -1 -1 -2 -2 -2 -2 -2 -2 -2 -1 -1 -1 -1 -1 -1 -1 -1 -0 -0 -1 -1 -1 -1
8 9 15 14 14 13 8 8 7 8 8 5 5 9 9 4 2 1 1 1 1 0 0 0 1 1 1 0 -1 -2 -2 -2 -2 -2 -1 -1 -1 -1 -1 -0 -1 -0 -0 -0 -0 -1 -1 -1 -1
7 12 15 13 13 11 7 9 6 5 7 7 6 6 4 3 2 2 2 2 2 1 0 1 2 2 2 1 -0 -1 -2 -1 -1 -1 -1 2 4 4 3 0 -0 -0 0 -0 -0 -0 -1 -1 -0
9 13 12 9 9 10 8 8 7 8 7 7 7 5 3 3 3 4 4 4 3 2 1 2 3 3 3 1 2 2 1 2 3 3 6 6 6 5 4 2 1 0 0 0 -0 1 1 3 5
10 12 9 8 7 7 8 8 7 8 9 7 8 6 5 4 4 4 4 3 3 2 2 4 4 4 4 3 4 4 5 5 5 5 7 7 6 7 8 8 8 8 6 7 6 6 7 7 7
12 8 8 7 7 7 8 7 8 7 7 6 6 4 5 5 5 4 4 3 3 2 3 4 4 5 6 5 6 6 7 7 7 7 7 8 8 9 9 9 9 9 9 8 8 8 8 7 7
11 9 8 7 7 7 7 8 8 8 5 6 5 5 5 5 4 3 3 2 2 2 4 4 5 6 7 7 7 7 7 8 8 8 7 8 8 9 9 10 9 9 9 9 8 8 8 8 7
10 9 8 7 7 7 8 8 8 7 6 6 6 6 5 5 4 4 3 3 3 3 4 5 6 7 7 8 8 8 7 8 8 8 8 8 9 9 9 9 9 9 9 9 8 8 8 8 8
9 11 9 9 8 9 8 10 10 7 6 6 6 6 5 5 4 4 3 3 2 3 4 5 6 7 8 8 8 8 7 7 8 8 8 8 8 9 9 9 9 9 9 8 8 8 8 8 8
12 13 15 11 9 9 9 14 9 7 8 8 7 6 6 5 4 3 3 3 2 3 4 4 4 6 8 8 8 8 7 8 8 8 9 8 8 8 8 8 8 8 8 8 9 9 9 8 8
15 17 17 13 9 10 10 12 9 7 8 8 7 7 6 5 5 3 3 2 2 3 3 5 5 7 7 8 9 8 7 8 8 9 8 8 7 7 8 8 8 8 8 8 8 9 9 9 8
18 17 16 15 11 10 11 11 9 8 9 9 9 8 7 6 5 4 3 2 3 3 4 4 5 6 6 7 9 9 8 8 9 9 8 7 7 7 8 8 7 7 8 8 8 9 9 9 8
15 16 16 14 11 12 12 12 10 8 9 10 9 9 7 6 5 3 3 2 3 3 3 4 6 7 7 8 9 10 9 9 9 8 7 7 7 7 8 8 8 7 8 8 8 9 9 9 9
14 15 16 14 12 12 12 12 10 9 9 9 9 9 7 6 5 4 4 3 3 4 4 5 5 6 7 7 7 8 9 9 8 8 7 7 7 7 7 8 8 8 8 8 8 8 9 9 10
14 16 16 15 13 12 14 15 13 10 10 9 9 8 6 7 6 5 4 4 3 4 3 4 4 6 6 6 7 7 7 8 8 8 8 8 8 7 7 8 8 8 8 8 8 8 8 9 9
15 13 13 14 16 20 14 19 15 12 11 10 10 9 8 7 6 5 4 4 4 4 4 4 4 5 6 6 7 8 8 9 8 8 9 8 7 7 8 8 8 8 8 8 8 8 9 9 9
14 12 14 15 17 16 17 20 16 13 13 11 10 10 9 6 6 5 5 4 4 4 4 3 3 4 6 6 7 7 8 8 8 8 8 7 7 7 8 8 8 8 8 8 8 9 9 9 9
11 14 15 16 16 19 20 19 17 16 13 12 11 10 9 6 6 5 4 4 5 3 2 3 4 5 5 6 6 7 8 7 8 9 8 8 7 7 8 8 8 8 8 8 8 8 9 9 9
13 15 22 23 20 22 23 20 17 13 11 11 10 9 9 8 6 6 5 4 4 3 3 3 4 5 5 6 6 6 6 6 7 8 7 8 7 8 8 8 8 9 8 8 8 8 8 9 9
14 15 21 24 26 22 18 20 16 13 11 10 10 9 9 9 6 6 5 4 4 3 3 3 3 5 5 6 6 6 6 6 7 7 7 7 7 7 8 8 8 9 8 8 8 9 9 9 9
15 15 14 18 21 21 20 18 14 13 13 12 11 11 10 10 8 6 5 4 4 3 3 3 3 4 4 5 4 4 5 5 6 6 6 6 6 7 7 8 9 9 9 9 9 9 9 9 9
13 12 16 18 22 23 21 21 19 16 14 12 11 11 10 10 9 8 5 4 4 3 3 2 3 4 4 4 3 4 4 5 6 7 7 7 6 8 8 9 9 9 10 9 10 10 10 9 10
13 15 16 16 18 22 22 21 15 14 14 13 12 11 11 10 10 9 6 4 4 3 3 3 3 4 4 3 4 4 4 4 6 7 7 7 7 8 8 8 9 9 10 10 10 11 10 10 10
13 14 15 18 20 18 21 19 13 13 13 13 12 11 10 10 10 9 7 5 4 4 3 3 3 3 2 3 3 4 4 5 7 7 7 8 8 8 8 8 9 9 10 11 11 11 10 10 10